When you browse on this site, cookies collect data to enhance your experience and personalize the content and advertising you see.
Visit our Privacy Policy to learn more. By continuing to use the site, you agree to this use of cookies and data.
  • In Hungary
  • List of Countries
  • For 7 days
  • Water Temperature
  • Satellite Maps
  • Weather Map
  • News
  • Weather Widgets
  • user-avatar
    Login

    Hourly Weather Ankona

    Today, 20 January, Sunday

    Time Temperature Precipitation Wind Pressure Humidity
    00:00 +5°C° 0 mm 3 mps 756 mmHg 80%
    01:00 +5°C° 0 mm 3 mps 756 mmHg 80%
    02:00 +5°C° 0 mm 3 mps 756 mmHg 81%
    03:00 +4°C° 0 mm 3 mps 756 mmHg 82%
    04:00 +4°C° 0 mm 3 mps 756 mmHg 83%
    05:00 +5°C° 0 mm 2 mps 756 mmHg 84%
    06:00 +5°C° 0 mm 2 mps 756 mmHg 85%
    07:00 +4°C° 0 mm 2 mps 756 mmHg 87%
    08:00 +5°C° 0 mm 2 mps 756 mmHg 84%
    09:00 +6°C° 0 mm 2 mps 756 mmHg 81%
    10:00 +7°C° 0 mm 2 mps 757 mmHg 78%
    11:00 +7°C° 0 mm 2 mps 757 mmHg 76%
    12:00 +8°C° 0 mm 2 mps 756 mmHg 73%
    13:00 +9°C° 0 mm 2 mps 756 mmHg 71%
    14:00 +8°C° 0 mm 2 mps 756 mmHg 73%
    15:00 +9°C° 0 mm 1 mps 756 mmHg 74%
    16:00 +9°C° 0 mm 1 mps 756 mmHg 76%
    17:00 +9°C° 0.1 mm 1 mps 756 mmHg 78%
    18:00 +9°C° 0.1 mm 1 mps 756 mmHg 80%
    19:00 +8°C° 0.1 mm 1 mps 756 mmHg 82%
    20:00 +7°C° 0.1 mm 2 mps 756 mmHg 83%
    21:00 +7°C° 0.1 mm 2 mps 757 mmHg 83%
    22:00 +7°C° 0.1 mm 2 mps 757 mmHg 84%
    23:00 +7°C° 0.5 mm 2 mps 757 mmHg 85%

    Tomorrow, 21 January, Monday

    Time Temperature Precipitation Wind Pressure Humidity
    00:00 +7°C° 0.5 mm 2 mps 757 mmHg 85%
    01:00 +7°C° 0.5 mm 2 mps 757 mmHg 86%
    02:00 +7°C° 0.4 mm 2 mps 757 mmHg 85%
    03:00 +7°C° 0.4 mm 2 mps 757 mmHg 85%
    04:00 +7°C° 0.4 mm 2 mps 757 mmHg 84%
    05:00 +7°C° 0.2 mm 2 mps 757 mmHg 84%
    06:00 +7°C° 0.2 mm 2 mps 757 mmHg 84%
    07:00 +7°C° 0.2 mm 2 mps 757 mmHg 84%
    08:00 +7°C° 0.3 mm 2 mps 757 mmHg 84%
    09:00 +7°C° 0.3 mm 2 mps 758 mmHg 83%
    10:00 +7°C° 0.3 mm 3 mps 758 mmHg 83%
    11:00 +7°C° 0.3 mm 3 mps 758 mmHg 83%
    12:00 +7°C° 0.3 mm 3 mps 758 mmHg 84%
    13:00 +7°C° 0.3 mm 3 mps 757 mmHg 84%
    14:00 +7°C° 0.1 mm 3 mps 757 mmHg 83%
    15:00 +7°C° 0.1 mm 3 mps 757 mmHg 83%
    16:00 +7°C° 0.1 mm 3 mps 757 mmHg 82%
    17:00 +7°C° 0.1 mm 3 mps 757 mmHg 81%
    18:00 +7°C° 0.1 mm 3 mps 757 mmHg 80%
    19:00 +7°C° 0.1 mm 3 mps 757 mmHg 79%
    20:00 +7°C° 0.1 mm 3 mps 757 mmHg 79%
    21:00 +7°C° 0.1 mm 3 mps 757 mmHg 78%
    22:00 +7°C° 0.1 mm 3 mps 757 mmHg 78%
    23:00 +7°C° 0.2 mm 3 mps 757 mmHg 79%

    Day after tomorrow, 22 January, Tuesday

    Time Temperature Precipitation Wind Pressure Humidity
    00:00 +7°C° 0.2 mm 3 mps 757 mmHg 80%
    01:00 +5°C° 0.2 mm 4 mps 756 mmHg 81%
    02:00 +5°C° 0.1 mm 4 mps 756 mmHg 81%
    03:00 +5°C° 0.1 mm 4 mps 756 mmHg 81%
    04:00 +5°C° 0.1 mm 4 mps 755 mmHg 81%
    05:00 +5°C° 0 mm 4 mps 755 mmHg 81%
    06:00 +5°C° 0 mm 5 mps 754 mmHg 81%
    07:00 +3°C° 0 mm 5 mps 754 mmHg 81%
    08:00 +3°C° 0 mm 5 mps 754 mmHg 81%
    09:00 +3°C° 0 mm 5 mps 754 mmHg 81%
    10:00 +3°C° 0 mm 5 mps 753 mmHg 81%
    11:00 +5°C° 0 mm 5 mps 753 mmHg 80%
    12:00 +4°C° 0 mm 6 mps 752 mmHg 79%
    13:00 +4°C° 0 mm 6 mps 751 mmHg 79%
    14:00 +5°C° 0 mm 5 mps 751 mmHg 78%
    15:00 +5°C° 0 mm 5 mps 750 mmHg 77%
    16:00 +5°C° 0 mm 4 mps 749 mmHg 77%
    17:00 +5°C° 0 mm 4 mps 749 mmHg 78%
    18:00 +4°C° 0 mm 4 mps 749 mmHg 79%
    19:00 +4°C° 0 mm 4 mps 748 mmHg 81%
    20:00 +3°C° 0 mm 4 mps 748 mmHg 82%
    21:00 +3°C° 0 mm 4 mps 747 mmHg 84%
    22:00 +1°C° 0 mm 4 mps 747 mmHg 86%
    23:00 +1°C° 0 mm 4 mps 747 mmHg 85%

    23 January, Wednesday

    Time Temperature Precipitation Wind Pressure Humidity
    00:00 +1°C° 0 mm 4 mps 746 mmHg 85%
    01:00 +1°C° 0 mm 4 mps 746 mmHg 85%
    02:00 +1°C° 0 mm 4 mps 745 mmHg 85%
    03:00 +1°C° 0 mm 4 mps 745 mmHg 85%
    04:00 0°C° 0 mm 4 mps 744 mmHg 85%
    05:00 0°C° 0 mm 4 mps 744 mmHg 86%
    06:00 +1°C° 0 mm 3 mps 744 mmHg 86%
    07:00 +1°C° 0 mm 3 mps 744 mmHg 86%
    08:00 +2°C° 0 mm 3 mps 744 mmHg 83%
    09:00 +3°C° 0 mm 3 mps 744 mmHg 79%
    10:00 +4°C° 0 mm 3 mps 744 mmHg 76%
    11:00 +5°C° 0 mm 3 mps 744 mmHg 75%
    12:00 +7°C° 0 mm 3 mps 744 mmHg 74%
    13:00 +8°C° 0 mm 3 mps 744 mmHg 73%
    14:00 +7°C° 0 mm 3 mps 744 mmHg 75%
    15:00 +7°C° 0 mm 3 mps 744 mmHg 76%
    16:00 +7°C° 0 mm 3 mps 743 mmHg 78%
    17:00 +7°C° 0.1 mm 3 mps 744 mmHg 79%
    18:00 +7°C° 0.1 mm 2 mps 744 mmHg 79%
    19:00 +7°C° 0.1 mm 2 mps 744 mmHg 80%
    20:00 +7°C° 0 mm 2 mps 744 mmHg 80%
    21:00 +7°C° 0 mm 3 mps 744 mmHg 79%
    22:00 +7°C° 0 mm 3 mps 745 mmHg 79%
    23:00 +7°C° 0 mm 3 mps 744 mmHg 79%

    24 January, Thursday

    Time Temperature Precipitation Wind Pressure Humidity
    00:00 +7°C° 0 mm 3 mps 744 mmHg 79%
    01:00 +7°C° 0 mm 4 mps 744 mmHg 79%
    02:00 +7°C° 0.5 mm 5 mps 744 mmHg 82%
    03:00 +7°C° 0.5 mm 6 mps 744 mmHg 84%
    04:00 +7°C° 0.5 mm 6 mps 744 mmHg 87%
    05:00 +7°C° 0.8 mm 6 mps 744 mmHg 86%
    06:00 +6°C° 0.8 mm 7 mps 744 mmHg 86%
    07:00 +6°C° 0.8 mm 7 mps 744 mmHg 86%
    08:00 +6°C° 0.1 mm 7 mps 744 mmHg 81%
    09:00 +8°C° 0.1 mm 7 mps 744 mmHg 77%
    10:00 +8°C° 0.1 mm 7 mps 745 mmHg 73%
    11:00 +8°C° 0 mm 7 mps 744 mmHg 70%
    12:00 +8°C° 0 mm 7 mps 744 mmHg 68%
    13:00 +9°C° 0 mm 7 mps 744 mmHg 65%
    14:00 +7°C° 0 mm 8 mps 744 mmHg 67%
    15:00 +7°C° 0 mm 8 mps 744 mmHg 68%
    16:00 +6°C° 0 mm 9 mps 744 mmHg 70%
    17:00 +6°C° 0 mm 8 mps 744 mmHg 71%
    18:00 +6°C° 0 mm 7 mps 745 mmHg 71%
    19:00 +5°C° 0 mm 7 mps 745 mmHg 72%
    20:00 +5°C° 0 mm 6 mps 745 mmHg 73%
    21:00 +5°C° 0 mm 6 mps 745 mmHg 73%
    22:00 +5°C° 0 mm 6 mps 746 mmHg 74%
    23:00 +5°C° 0 mm 6 mps 746 mmHg 74%

    25 January, Friday

    Time Temperature Precipitation Wind Pressure Humidity
    00:00 +5°C° 0 mm 7 mps 746 mmHg 74%
    01:00 +5°C° 0 mm 7 mps 746 mmHg 74%
    02:00 +5°C° 0 mm 7 mps 746 mmHg 74%
    03:00 +5°C° 0 mm 7 mps 746 mmHg 74%
    04:00 +5°C° 0 mm 7 mps 746 mmHg 74%
    05:00 +5°C° 0 mm 7 mps 747 mmHg 74%
    06:00 +4°C° 0 mm 7 mps 747 mmHg 74%
    07:00 +4°C° 0 mm 7 mps 747 mmHg 74%
    08:00 +5°C° 0.2 mm 7 mps 748 mmHg 75%
    09:00 +5°C° 0.2 mm 7 mps 749 mmHg 75%
    10:00 +5°C° 0.2 mm 7 mps 749 mmHg 75%
    11:00 +5°C° 0.2 mm 8 mps 750 mmHg 73%
    12:00 +5°C° 0.2 mm 9 mps 750 mmHg 70%
    13:00 +5°C° 0.2 mm 10 mps 750 mmHg 68%
    14:00 +5°C° 0.1 mm 10 mps 750 mmHg 68%
    15:00 +5°C° 0.1 mm 10 mps 751 mmHg 69%
    16:00 +5°C° 0.1 mm 10 mps 751 mmHg 69%
    17:00 +5°C° 0.1 mm 9 mps 752 mmHg 70%
    18:00 +3°C° 0.1 mm 9 mps 753 mmHg 71%
    19:00 +3°C° 0.1 mm 9 mps 753 mmHg 71%
    20:00 +4°C° 0 mm 8 mps 754 mmHg 72%
    21:00 +4°C° 0 mm 8 mps 754 mmHg 72%
    22:00 +4°C° 0 mm 7 mps 755 mmHg 72%
    23:00 +4°C° 0 mm 7 mps 755 mmHg 72%
    Show more